Home   Weather   San Antonio   Past weeks

Flag for USA Past Weather in San Antonio, Texas, USA — Yesterday and Last 2 Weeks

Now
49 °F

Mostly cloudy.


Feels Like: 42 °F
Forecast: 35 / 52 °F
Wind: 20 mph from Northeast

Location: San Antonio International Airport

Current Time: Dec 8, 2016 at 6:15:38 am

Latest Report: Dec 8, 2016 at 4:51 am


Visibility: 10 mi

Pressure: 30.23 "Hg

Humidity: 69%

Dew Point: 39 °F

Location of San AntonioLocation

Past Weather in San Antonio — Graph

°F

San Antonio Temperature Yesterday

Maximum temperature yesterday: 57 °F (at 2:51 pm)
Minimum temperature yesterday: 43 °F (at 5:51 am)
Average temperature yesterday: 51 °F

High & Low Weather Summary for the Past Weeks

 TemperatureHumidityPressure
High80 °F (Nov 28, 12:51 pm)97% (Nov 23, 4:51 am)30.34 "Hg (Nov 23, 4:51 am)
Low40 °F (Dec 1, 4:51 am)19% (Nov 29, 12:51 pm)29.51 "Hg (Nov 28, 4:51 pm)
Average58 °F71%29.97 "Hg
* Reported Nov 23 4:51 am — Dec 8 4:51 am, San Antonio, Weather by CustomWeather, © 2016

Note: Actual official high and low records may vary slightly from our data, if they occured in-between our weather recording intervals... More about our weather records

Advertising

San Antonio Weather History for the Previous 24 Hours

Scroll right to see more
 ConditionsComfort  
Time TempWeatherWind HumidityBarometerVisibility
4:51 am
Thu, Dec 8
49 °FMostly cloudy.20 mph69%30.23 "Hg10 mi
3:51 am50 °FMostly cloudy.22 mph71%30.22 "Hg10 mi
2:51 am51 °FMostly cloudy.16 mph74%30.20 "Hg10 mi
1:51 am52 °FOvercast.18 mph77%30.19 "Hg10 mi
12:51 am52 °FOvercast.16 mph80%30.18 "Hg10 mi
12:02 am53 °FLight rain. Overcast.14 mph80%30.21 "Hg10 mi
11:51 pm
Wed, Dec 7
53 °FLight rain. Overcast.17 mph80%30.18 "Hg10 mi
10:51 pm55 °FOvercast.9 mph80%30.16 "Hg10 mi
9:51 pm54 °FOvercast.6 mph80%30.14 "Hg10 mi
8:51 pm54 °FMostly cloudy.9 mph80%30.11 "Hg10 mi
7:51 pm55 °FOvercast.9 mph77%30.08 "Hg10 mi
6:51 pm56 °FOvercast.6 mph77%30.05 "Hg10 mi
5:51 pm56 °FOvercast.6 mph77%30.03 "Hg10 mi
4:51 pm57 °FOvercast.5 mph74%30.01 "Hg10 mi
3:51 pm56 °FOvercast.5 mph77%29.99 "Hg10 mi
2:51 pm57 °FOvercast.6 mph69%29.98 "Hg10 mi
1:51 pm55 °FOvercast.3 mph74%29.99 "Hg10 mi
12:51 pm54 °FOvercast.5 mph74%30.01 "Hg10 mi
11:51 am52 °FCloudy.6 mph77%30.05 "Hg10 mi
10:51 am51 °FMostly cloudy.6 mph80%30.07 "Hg8 mi
9:51 am49 °FOvercast.6 mph84%30.06 "Hg7 mi
8:51 am48 °FMostly cloudy.6 mph83%30.05 "Hg7 mi
7:51 am47 °FOvercast.3 mph86%30.06 "Hg7 mi
6:51 am45 °FPassing clouds.No wind93%30.04 "Hg8 mi
Weather by CustomWeather, © 2016

See weather overviewHow to use our weather pages